Miscellaneous Local Product
Issued by NWS Hastings, NE

Home | Current Version | Previous Version | Text Only | Print | Product List | Glossary On
Versions: 1 2 3 4 5 6 7 8 9 10 11 12 13 14 15 16 17 18 19 20 21 22 23 24 25 26 27 28 29 30 31 32 33 34 35 36 37 38 39 40 41 42 43 44 45 46 47 48 49 50
116
AXUS43 KGID 230402
MISGRI

GID CWA HOURLY WEATHER ROUNDUP
NATIONAL WEATHER SERVICE HASTINGS NE
1100 PM CDT FRI SEP 22 2017

NOTE: "FAIR" INDICATES FEW OR NO CLOUDS BELOW 12,000 FEET WITH NO
SIGNIFICANT WEATHER AND/OR OBSTRUCTIONS TO VISIBILITY.

...SOUTH CENTRAL NEBRASKA...

CITY           SKY/WX    TMP DP  RH WIND       PRES   REMARKS
GRAND ISLAND   PTCLDY    80  65  59 S16G26    29.84R
HASTINGS       PTCLDY    82  61  48 S14G26    29.85R
KEARNEY        PTCLDY    81  63  54 S22G32    29.82R
ORD            MOCLDY    71  60  68 NW6       29.80R
YORK           CLEAR     81  64  57 S17G23    29.85R
AURORA         PTCLDY    80  64  57 S17G24    29.84R
LEXINGTON      PTCLDY    82  59  44 S20       29.79S
HOLDREGE       MOCLDY    80  61  52 S15       29.83R
HEBRON         PTCLDY    81  65  59 S14G20    29.87S

...NEBRASKA PANHANDLE...

CITY           SKY/WX    TMP DP  RH WIND       PRES   REMARKS
CHADRON        PTCLDY    50  37  61 NE12      29.98R
ALLIANCE       CLOUDY    52  40  63 NE18      29.95R
SCOTTSBLUFF    CLEAR     54  42  64 N10       29.94R
SIDNEY         PTCLDY    57  46  66 NE18      29.90R

...WESTERN AND NORTH CENTRAL NEBRASKA...

CITY           SKY/WX    TMP DP  RH WIND       PRES   REMARKS
VALENTINE      CLOUDY    55  44  66 N14       29.94R
AINSWORTH      LGT RAIN  55  50  83 N13       29.91R
ONEILL         CLOUDY    62  58  84 NW6       29.87R
BROKEN BOW     CLOUDY    66  55  67 N14       29.83R
IMPERIAL       PTCLDY    81  51  35 SE9G20    29.79R
NORTH PLATTE   PTCLDY    65  53  65 NE24G31   29.82R
MCCOOK         PTCLDY    83  60  45 S21G31    29.78R

...EASTERN NEBRASKA...

CITY           SKY/WX    TMP DP  RH WIND       PRES   REMARKS
NORFOLK        CLOUDY    79  67  66 S15       29.80S
SO SIOUX CITY  CLOUDY    81  69  67 S15       29.83R
TEKAMAH        PTCLDY    78  67  68 SE10      29.85R
COLUMBUS       CLEAR     80  67  64 SE9       29.84R
ALBION         PTCLDY    80  66  62 S14       29.82R
OMAHA EPPLEY   CLEAR     81  68  64 S17       29.88R
OFFUTT AFB     CLEAR     79  68  69 SE16      29.89R
MILLARD        CLEAR     81  70  68 SE12      29.89R
LINCOLN        CLEAR     80  67  64 S16       29.87R
NEBRASKA CITY  CLEAR     77  69  76 S14       29.92R
BEATRICE       CLEAR     80  68  67 S14       29.90R
FALLS CITY     CLEAR     76  69  79 SE8       29.92R

...NORTHERN KANSAS...

CITY           SKY/WX    TMP DP  RH WIND       PRES   REMARKS
GOODLAND       PTCLDY    77  58  51 S21       29.81R
HILL CITY      CLEAR     82  62  50 S16G26    29.83S
NORTON         CLEAR     81  54  39 S20G29    29.81
PHILLIPSBURG   CLEAR     82  61  47 S16G23    29.82S
SMITH CENTER   CLOUDY    79  63  57 SE15G24   29.85R
HAYS           CLOUDY    81  64  56 S16       29.85R
RUSSELL        CLOUDY    80  64  58 S20       29.84R
CONCORDIA      CLEAR     78  68  71 S15       29.88R
SALINA         CLOUDY    82  68  62 SE15      29.89R
TOPEKA         CLEAR     76  70  82 SE7       29.94R



USA.gov is the U.S. government's official web portal to all federal, state and local government web resources and services.